Theta_e
345 346 348 347 347 348 348 349 350 351 351 351 351 351 351 350 351 351 350 349 350 349 350 349 349 348 348 348 349 348 348 347 347 347 346 345 344 342 341 342 342 341 341 341 341 341 342 342 343 344 344 345 345 346 346 347 346 345 342 341 341 340 340 339 338 337 338 340 342 343 345 344 343 344 343 344 344 343 342 344 345 344 346 347 348
344 347 348 350 346 347 347 348 351 351 350 350 350 350 350 350 350 350 350 349 349 349 349 349 349 349 348 348 348 347 346 347 347 347 346 345 342 341 341 342 341 340 341 341 340 341 341 341 341 341 342 343 343 345 345 345 345 342 340 340 340 340 339 338 336 337 337 338 338 339 340 342 342 342 343 343 343 343 341 343 344 344 344 346 346
342 347 349 350 346 347 348 348 351 350 350 350 350 350 350 350 350 349 349 350 349 349 349 349 349 349 348 347 347 347 346 347 347 346 346 344 342 340 340 340 340 340 340 340 340 340 340 340 340 340 342 342 343 346 346 344 342 341 340 340 339 339 338 336 336 336 337 338 337 338 339 339 339 340 341 341 342 342 340 341 341 341 340 343 344
343 347 349 348 344 347 348 348 348 349 350 350 350 349 350 350 349 349 349 348 348 349 349 349 349 349 348 346 346 346 346 346 346 345 345 343 342 339 339 340 340 339 339 340 340 340 339 339 339 339 341 341 344 345 345 343 341 340 340 339 339 338 337 336 336 336 337 337 337 336 335 334 336 338 339 341 341 341 339 339 338 339 340 340 341
344 347 348 350 351 348 347 349 349 349 349 350 349 349 349 349 348 348 348 348 348 348 347 348 348 347 347 346 346 346 347 346 345 345 345 343 341 339 339 339 340 339 339 339 340 339 339 339 338 339 340 344 345 344 343 342 341 341 339 339 339 338 337 336 336 336 336 336 336 334 333 333 333 335 337 339 339 339 338 338 337 339 339 339 339
345 348 349 349 350 351 346 348 349 349 349 349 349 349 348 348 348 348 348 348 348 347 347 348 348 347 346 345 346 347 346 346 345 344 342 342 340 338 338 339 340 339 339 339 339 339 338 338 338 339 343 345 344 343 342 342 341 340 338 339 339 338 337 337 337 335 336 336 335 332 332 333 332 332 336 337 337 336 337 337 338 338 337 338 338
345 348 350 348 350 349 343 347 348 349 349 349 349 348 348 348 348 347 347 347 347 347 347 347 347 347 346 345 345 346 346 345 344 343 341 340 338 337 338 339 339 339 339 339 338 338 338 337 340 345 346 344 343 343 341 340 340 338 338 338 338 338 337 336 336 335 337 333 332 332 331 332 332 331 336 336 336 336 336 338 338 338 338 337 337
348 350 349 349 349 345 343 346 347 349 349 349 349 348 347 347 347 346 346 347 347 347 347 347 346 346 346 345 345 346 346 345 343 343 341 339 337 336 337 339 339 338 338 339 338 338 337 338 340 343 344 342 342 341 341 341 339 338 338 338 338 337 337 336 335 336 335 330 333 332 331 332 332 332 336 337 336 336 335 336 337 337 337 337 335
347 348 348 348 350 341 342 344 346 348 347 348 348 347 347 346 347 348 346 346 346 347 347 346 346 346 345 345 345 346 345 345 343 343 340 337 335 335 336 338 338 338 338 338 338 337 341 341 343 343 342 341 340 340 340 339 338 337 338 337 337 336 336 335 334 335 331 331 331 332 332 332 332 332 334 336 338 337 335 333 334 336 336 335 335
347 348 349 349 350 340 341 343 346 347 347 348 348 347 347 346 346 346 346 346 346 346 346 346 345 345 344 345 345 345 344 343 343 342 340 336 334 334 336 337 337 337 337 338 337 337 340 340 341 341 341 341 340 339 338 337 336 337 337 336 336 336 335 334 334 332 330 330 331 333 333 334 332 331 334 335 335 335 334 334 333 334 333 333 334
346 348 349 348 349 339 343 344 343 346 347 347 348 347 347 345 346 345 345 345 346 346 346 346 346 345 345 345 345 344 343 343 342 341 338 335 334 334 336 337 336 336 336 337 337 336 337 337 339 340 340 339 337 337 336 335 335 335 335 335 334 333 333 333 332 331 330 330 331 331 332 334 331 331 334 334 335 335 333 333 333 333 332 333 333
345 347 349 347 345 338 342 344 343 345 345 346 347 347 346 345 345 345 345 345 345 346 346 346 345 345 345 345 344 344 343 342 341 340 338 335 334 335 337 337 336 335 335 335 335 335 336 335 337 338 336 334 333 333 333 333 333 333 332 331 330 330 330 331 333 331 332 330 331 331 329 330 331 331 335 334 334 336 334 333 333 333 333 332 332
345 346 348 348 349 337 339 342 343 343 345 346 347 347 346 345 345 345 345 346 346 346 346 346 345 345 344 344 344 343 343 342 341 340 338 335 335 336 337 336 336 335 335 335 335 334 334 335 336 335 332 331 330 330 330 331 331 330 329 329 328 327 328 330 332 331 331 333 332 331 334 335 336 336 336 336 335 335 334 335 337 334 333 333 333
344 346 347 348 348 341 336 340 343 343 343 345 347 347 347 345 345 345 346 346 346 346 346 345 345 344 343 343 343 342 342 341 341 339 338 336 334 335 335 336 335 335 335 334 334 334 333 333 333 332 330 328 327 328 328 330 330 329 328 327 326 326 327 329 330 331 332 333 334 334 335 336 337 337 338 338 338 337 336 338 337 336 336 335 334
343 347 347 348 346 345 337 336 339 342 343 342 345 346 347 346 346 346 346 346 346 346 345 345 344 344 343 343 342 342 341 341 340 339 337 336 333 333 333 333 334 334 334 334 334 332 332 332 331 329 327 326 325 325 327 328 328 327 327 325 324 324 324 330 330 331 332 333 332 333 334 335 337 337 337 339 338 338 337 337 337 335 336 336 336
344 346 347 346 346 346 344 340 335 338 338 341 343 344 346 347 347 347 346 346 345 345 345 345 344 344 343 342 342 342 341 341 340 338 337 335 333 331 330 331 331 332 333 333 333 332 331 330 328 326 325 323 324 325 326 326 326 325 324 324 323 323 322 326 330 330 331 332 331 331 331 332 335 337 337 336 338 337 337 336 336 337 335 336 336
339 341 340 337 340 344 346 344 338 333 333 337 338 340 343 345 346 347 346 346 346 345 345 344 344 343 342 342 342 342 341 340 339 337 335 335 334 331 329 329 330 331 331 331 330 329 328 327 326 324 323 323 324 325 325 325 325 324 323 322 323 323 322 324 328 329 329 330 330 329 329 330 332 335 336 336 336 336 336 336 336 336 336 336 336
334 338 335 336 337 337 340 344 344 343 344 338 334 335 339 343 344 344 343 344 345 345 344 343 342 342 341 339 339 339 339 339 337 336 335 334 333 331 330 328 328 329 329 329 329 328 327 326 325 323 323 323 324 325 325 324 323 322 321 321 321 322 322 322 328 328 327 327 328 328 328 331 331 332 335 336 336 335 335 334 335 335 335 335 334
333 334 332 333 334 333 334 339 343 344 344 345 344 339 331 336 339 340 340 342 342 341 341 341 340 339 338 336 336 334 333 334 333 334 333 332 331 329 329 328 327 327 329 329 329 328 327 326 325 324 323 323 323 324 323 322 321 320 320 319 320 320 320 323 327 327 326 324 325 326 327 331 331 333 334 333 333 334 334 334 334 333 333 334 334
328 330 332 331 331 331 331 334 339 341 343 345 344 342 333 330 336 337 338 340 338 338 337 336 333 331 331 331 329 334 331 332 326 331 329 331 329 328 329 328 326 326 326 326 326 327 326 325 324 323 322 322 321 321 320 320 319 318 317 318 318 318 324 324 326 326 325 324 324 325 329 329 329 332 332 332 332 332 332 331 332 332 333 333 334
323 326 329 328 327 327 328 333 336 338 340 342 343 342 339 330 332 330 330 334 335 334 331 326 322 322 326 325 328 339 338 336 334 334 325 333 322 324 328 328 326 326 325 325 325 324 323 322 322 320 319 317 315 314 314 316 315 315 315 315 315 320 321 323 324 324 326 325 324 325 329 329 329 331 331 331 331 330 330 329 331 331 331 331 332
325 324 325 325 326 325 325 328 335 336 336 340 342 343 343 336 345 344 344 337 330 327 335 341 334 341 326 335 342 340 338 338 335 331 333 331 328 321 324 326 326 326 326 325 325 323 322 321 320 318 316 315 313 314 312 311 310 311 311 312 316 317 319 321 322 322 324 325 325 327 328 328 329 330 330 331 331 330 328 328 328 330 331 330 330
327 324 324 322 321 321 323 324 329 334 336 337 339 343 343 342 344 343 342 335 336 341 342 341 342 342 342 341 339 340 339 337 336 334 333 323 327 321 323 326 326 326 325 324 323 322 320 319 318 315 314 313 314 313 312 312 311 309 309 312 312 313 316 317 319 321 321 321 323 325 327 328 328 330 331 330 331 329 328 327 327 328 328 328 329
324 325 323 322 321 322 321 323 327 332 335 336 338 340 344 343 343 344 342 342 341 342 343 341 341 343 343 342 339 341 340 338 326 324 325 331 325 319 319 320 322 322 321 321 320 319 318 316 315 314 313 313 312 310 310 309 309 309 309 309 309 310 312 314 315 318 319 318 318 321 326 326 328 329 330 330 330 329 329 329 330 330 329 328 328
319 319 321 321 322 322 322 324 326 331 334 334 333 337 342 343 342 343 342 341 342 342 342 341 340 340 341 339 341 340 340 336 334 333 333 331 328 326 325 324 324 323 318 319 317 316 316 316 314 313 312 311 310 309 308 307 307 307 307 307 307 308 310 311 312 315 317 316 314 318 325 324 326 327 328 330 329 328 329 329 329 329 329 329 328
315 319 320 320 321 321 324 326 327 331 334 335 335 335 338 340 343 341 341 340 342 341 341 340 339 339 339 339 338 339 338 335 336 336 333 331 328 326 325 323 322 321 320 319 317 316 315 314 312 310 308 308 307 306 306 305 305 305 304 305 305 306 307 308 309 311 314 313 312 315 322 324 324 325 328 329 328 328 327 326 327 328 328 328 327
320 321 320 320 320 321 323 325 327 330 332 335 335 335 337 336 335 340 340 339 340 338 338 340 340 339 339 338 337 338 337 336 334 334 332 331 329 327 323 322 321 320 319 318 317 315 313 311 309 307 306 305 304 304 304 303 303 303 303 303 303 303 305 305 306 308 310 311 310 311 318 322 324 326 326 328 328 327 327 327 327 324 325 327 327
320 319 319 320 321 321 321 323 326 328 331 334 334 335 336 335 335 333 336 336 338 338 338 338 339 339 338 337 336 338 337 334 333 333 332 331 328 327 324 323 321 320 319 316 314 312 310 308 307 306 304 304 303 302 301 301 301 301 301 301 301 301 302 303 304 305 307 308 309 307 313 318 320 322 325 327 327 327 327 327 327 326 325 325 326
318 317 318 318 319 319 320 321 323 325 329 332 333 334 335 334 333 334 332 327 337 339 339 337 336 334 336 337 336 337 338 336 334 334 332 330 327 324 324 322 320 318 316 315 312 310 308 307 305 305 303 302 301 300 300 300 299 299 299 299 299 300 300 301 302 302 304 306 307 305 308 313 317 318 320 322 323 324 325 325 326 326 325 325 323
316 316 316 317 318 318 318 319 321 325 329 330 332 332 332 331 331 330 330 330 331 332 335 334 335 334 333 335 336 336 337 336 333 332 331 328 324 324 321 319 317 317 316 312 310 309 308 306 305 303 302 301 300 299 299 298 298 298 298 298 297 297 299 299 300 300 302 304 305 305 303 307 314 316 317 318 319 321 322 323 323 325 325 323 321
314 314 315 316 317 316 318 319 320 323 327 329 330 330 330 330 329 328 327 330 331 329 327 328 330 331 331 332 333 331 329 330 329 327 325 325 323 324 321 318 316 316 314 313 314 308 308 305 303 302 300 300 299 298 297 296 296 296 297 297 297 297 297 297 298 299 299 301 302 303 304 303 307 312 314 315 316 318 319 320 321 321 322 322 321
313 314 315 316 315 316 316 318 319 322 324 327 329 330 327 326 326 326 324 325 327 328 326 326 324 328 329 330 330 329 328 328 327 325 324 322 321 319 318 316 313 313 313 310 308 308 304 303 303 301 299 298 297 297 297 296 295 295 296 296 296 296 296 296 296 296 297 298 299 300 302 303 302 304 308 313 315 315 316 317 317 317 318 319 319
314 314 314 314 314 315 316 317 319 321 322 323 324 326 323 322 325 323 322 321 321 321 322 324 324 324 326 329 330 330 327 327 328 325 324 322 317 314 313 312 310 310 309 307 306 304 301 300 299 298 297 296 295 295 296 294 294 294 295 295 296 296 296 296 295 295 295 296 296 297 298 300 301 299 300 304 309 312 313 314 313 315 316 317 318
313 313 313 313 314 314 314 317 318 319 318 318 319 322 323 321 319 319 318 318 317 317 317 318 318 320 323 326 327 326 329 328 326 323 320 316 314 311 310 309 310 309 308 307 306 303 300 298 297 297 297 296 295 295 294 293 293 293 294 295 295 295 295 295 294 294 295 295 295 296 295 295 296 297 297 298 301 305 308 310 310 311 312 313 315
312 312 312 313 312 313 313 316 317 315 315 317 320 320 319 319 316 316 315 315 315 316 316 316 317 317 318 322 322 321 322 322 322 317 314 313 310 308 309 309 309 309 309 307 303 301 299 298 297 296 296 296 295 295 294 294 294 294 294 295 294 295 295 294 294 294 294 294 294 295 295 294 294 295 295 294 295 298 302 305 307 308 309 311 312
311 311 312 312 311 312 313 314 314 314 315 314 313 314 315 316 315 313 315 313 312 313 313 315 317 316 315 316 317 315 315 316 315 314 311 310 309 308 307 309 309 309 308 305 303 301 299 298 297 297 294 294 294 293 294 293 294 294 294 294 294 294 294 293 293 294 294 294 294 294 294 294 294 293 294 293 292 293 296 299 301 304 305 306 309
311 311 311 311 312 312 311 312 312 313 310 309 310 310 310 311 311 311 310 310 309 309 310 313 315 314 314 314 314 313 313 313 313 313 312 310 308 308 308 308 308 307 306 305 303 301 298 297 297 297 296 294 294 294 293 293 293 293 294 294 294 294 294 293 293 293 294 294 293 293 293 294 294 294 293 293 293 292 292 294 296 298 298 301 303
311 311 311 311 311 311 311 310 309 310 310 308 307 306 304 305 306 305 304 305 305 306 306 307 309 311 313 312 311 311 311 311 311 312 312 310 309 308 308 308 309 308 306 303 301 300 298 297 295 296 296 295 294 293 292 293 293 293 292 293 293 293 293 293 293 293 293 292 293 293 293 293 293 293 293 293 293 292 292 292 292 292 293 296 300
310 310 311 312 311 309 308 308 307 307 307 307 305 303 302 303 303 302 301 301 302 303 305 304 305 307 309 309 309 310 311 311 311 312 311 310 310 309 309 309 308 307 304 302 301 300 298 297 295 295 296 296 295 294 293 293 292 292 291 291 292 292 293 293 293 293 292 293 292 292 293 292 293 293 293 292 292 292 291 291 290 290 290 292 295
310 310 310 310 309 308 308 307 306 306 305 304 304 303 303 302 301 301 301 300 300 300 300 302 303 304 306 306 306 307 308 310 311 312 311 310 310 309 308 307 306 305 303 301 300 299 298 297 296 295 295 295 295 294 293 292 291 291 290 290 291 292 292 292 292 292 292 292 292 292 291 292 292 292 292 292 292 291 291 290 290 289 289 289 291
309 309 309 309 309 307 306 305 305 305 304 303 304 305 304 302 303 303 302 301 300 299 299 300 301 302 302 303 303 304 306 308 309 310 310 308 308 307 306 304 304 304 303 302 301 300 299 298 296 295 294 293 293 294 294 293 291 289 290 290 289 291 291 291 291 291 292 292 292 291 291 291 291 291 291 291 291 290 290 290 289 289 288 288 288
308 308 309 308 308 307 307 306 304 305 306 306 305 307 307 308 305 301 300 299 299 300 298 298 298 298 299 300 301 303 305 306 307 308 308 306 305 305 304 303 303 304 304 303 301 299 298 297 296 294 295 293 292 294 295 294 292 289 288 288 288 289 290 290 289 290 291 291 291 292 291 291 291 291 291 290 290 290 289 289 289 288 288 287 287
308 308 309 308 307 306 307 305 305 305 305 305 305 305 304 302 301 299 299 296 296 297 297 296 297 297 298 299 299 301 302 303 305 306 305 305 304 304 303 303 303 303 302 301 300 299 298 296 296 294 293 294 294 296 295 296 293 292 291 289 286 287 288 288 289 289 290 290 290 291 291 290 290 291 291 290 289 289 289 288 288 287 287 287 286
308 307 308 308 306 306 306 304 304 305 304 305 303 302 300 299 298 297 296 297 295 294 294 296 297 298 297 297 298 298 300 301 302 303 302 302 302 302 303 303 303 303 302 301 300 298 297 297 297 296 295 292 292 291 295 295 295 293 289 293 289 290 285 287 287 287 289 289 289 289 290 289 290 290 290 289 288 288 288 288 287 287 286 286 286
307 307 308 307 305 305 305 304 304 304 305 302 300 299 297 296 296 295 295 294 295 294 294 294 296 295 296 297 296 296 297 297 298 299 300 300 300 300 303 304 303 303 303 301 300 298 298 298 298 296 295 294 292 294 294 295 296 293 295 291 289 289 290 287 287 286 289 288 288 288 289 289 289 289 289 289 288 288 287 287 287 286 286 286 285
306 307 308 307 306 306 305 304 304 303 303 301 299 298 297 295 295 295 294 295 294 294 295 296 296 297 297 295 295 294 294 294 294 295 296 296 297 299 302 303 303 303 303 302 300 299 299 298 298 298 297 298 296 294 293 292 293 294 293 292 295 292 290 288 288 284 287 288 287 287 288 288 288 289 289 288 288 287 287 286 286 286 286 285 285
307 308 308 307 306 306 305 305 303 302 301 299 297 297 296 296 297 300 300 299 298 299 300 299 298 296 295 294 293 292 292 293 292 293 294 295 296 298 300 302 302 303 302 301 299 299 299 299 299 299 299 299 298 296 294 292 292 292 293 294 294 292 294 289 287 287 284 286 287 287 287 288 288 288 288 287 287 287 286 286 286 286 285 285 284
307 307 307 307 306 304 304 303 302 300 299 298 297 298 297 297 300 303 303 304 305 302 298 296 295 294 293 293 293 291 291 292 292 292 294 294 296 298 299 300 300 301 300 300 299 299 299 299 299 300 299 298 299 298 295 292 292 291 292 292 291 292 294 292 296 290 288 285 284 286 286 287 287 287 287 287 287 286 286 285 285 285 284 284 284
307 306 306 307 307 304 302 302 300 298 297 298 298 298 299 300 302 302 302 302 299 296 294 294 293 293 293 292 292 291 291 291 292 292 293 294 295 297 298 299 299 298 298 299 299 298 297 296 296 296 297 297 299 299 296 294 294 291 290 291 291 290 290 291 291 291 288 287 285 284 285 286 286 286 286 286 286 286 285 285 284 284 284 284 284
307 307 306 306 306 303 301 301 299 298 297 297 298 298 299 299 300 299 299 296 294 292 293 292 292 293 292 292 291 291 290 290 291 292 292 294 295 296 297 297 297 297 296 297 297 297 297 296 296 297 297 296 296 296 296 294 294 292 292 291 290 289 289 289 289 288 288 290 287 286 286 284 284 286 286 286 286 285 285 285 285 284 284 283 283
306 305 305 305 304 302 301 300 299 299 298 297 297 297 298 298 298 298 296 294 292 291 291 291 291 292 292 291 291 291 290 290 290 291 292 293 294 295 296 296 296 295 295 296 296 296 296 296 295 296 296 295 294 294 293 294 292 292 292 291 290 290 290 289 288 289 288 286 286 286 286 286 286 285 286 285 285 285 284 284 284 284 283 283 282
Wind_Speed
6 6 5 2 4 2 2 2 7 8 8 8 9 9 9 10 11 12 12 12 12 13 13 13 13 13 14 14 15 15 15 16 16 16 16 16 16 16 16 16 16 16 16 15 15 14 13 12 14 14 15 16 17 18 19 19 20 20 19 19 19 20 19 19 18 18 16 17 19 21 21 20 20 20 21 21 21 20 18 18 15 15 13 16 20
5 6 4 5 2 3 3 3 7 7 8 8 8 10 10 11 10 11 12 12 12 13 12 12 13 13 13 14 15 15 15 16 15 16 16 16 16 16 17 17 17 16 16 16 16 15 14 13 13 13 13 14 15 16 18 19 19 19 19 19 19 19 19 18 17 17 16 14 15 19 21 22 21 20 20 20 21 20 19 21 21 14 12 18 21
0 5 6 5 2 2 6 6 6 8 8 9 9 9 10 9 10 11 11 12 12 12 13 12 12 13 13 14 14 14 15 15 15 16 17 17 16 16 17 17 17 17 16 17 16 16 15 14 14 14 14 14 16 18 19 20 19 18 18 18 18 18 18 17 17 16 14 11 11 12 16 19 21 21 20 21 21 22 23 22 21 18 14 21 19
1 6 6 6 2 1 7 5 6 7 9 9 9 9 9 9 10 10 11 12 12 13 12 12 12 13 14 14 14 14 14 15 16 16 17 17 17 16 17 17 16 17 16 17 17 17 16 15 15 14 14 14 17 18 20 19 19 19 18 18 18 18 16 15 15 14 12 10 9 11 11 13 16 21 21 20 22 23 21 22 21 20 20 20 20
4 6 5 6 7 6 5 5 6 7 8 9 8 9 9 9 9 10 11 11 12 12 12 13 13 13 13 13 14 14 15 15 16 17 17 17 16 16 16 16 16 16 16 17 17 17 16 15 14 16 15 17 18 19 19 20 19 18 19 18 17 16 15 13 13 12 9 10 11 11 12 13 12 19 20 21 22 21 22 22 22 21 20 21 22
6 6 5 5 6 6 4 4 6 8 8 8 9 8 8 8 8 9 10 11 11 12 12 12 12 12 13 13 14 14 15 15 16 16 16 16 16 16 16 16 16 16 17 17 17 17 16 16 16 16 17 19 20 20 20 19 19 18 17 17 16 15 13 12 12 11 7 9 11 10 12 13 13 13 20 20 20 21 22 22 21 21 20 20 20
6 5 6 6 6 5 4 3 5 4 8 8 8 8 8 7 8 8 10 10 11 11 11 11 12 13 13 13 14 15 15 16 16 15 15 15 16 16 16 16 16 16 17 17 17 17 16 17 18 19 20 20 20 19 19 19 18 18 17 16 16 14 13 12 11 11 8 11 10 10 11 13 12 11 19 20 19 20 20 21 22 21 21 20 20
5 5 5 5 5 7 4 3 4 3 8 8 8 8 7 8 7 8 9 10 10 10 11 11 12 12 12 13 13 15 16 16 15 15 15 15 15 16 16 16 16 17 17 17 17 17 18 17 17 18 20 19 19 19 19 18 18 17 17 16 15 13 12 11 11 9 13 12 11 11 11 12 14 12 18 19 21 20 19 20 21 22 22 22 18
5 6 6 6 6 6 3 1 3 3 6 8 8 8 7 6 5 7 9 9 10 10 11 11 11 11 12 13 13 15 16 16 15 15 15 15 15 16 16 16 16 17 17 17 16 18 18 18 19 19 19 19 18 19 18 18 17 16 16 15 14 13 11 10 10 8 12 12 13 12 13 12 12 12 17 19 20 21 20 16 17 20 22 21 20
6 5 5 5 5 6 3 0 3 4 4 7 8 8 8 7 6 8 9 9 9 9 10 11 11 13 12 13 14 15 15 15 14 14 14 14 15 16 16 16 17 17 17 16 16 18 18 18 18 19 19 19 19 19 17 17 16 16 16 15 14 12 11 9 7 13 11 12 14 15 13 13 11 13 16 19 20 20 19 16 14 15 16 20 22
7 6 4 4 5 6 1 2 0 2 2 5 7 8 8 8 7 8 9 9 8 9 10 11 12 12 12 13 13 14 14 14 14 13 14 14 15 15 16 15 16 16 16 16 17 18 18 18 18 18 19 19 19 18 17 16 17 16 16 15 14 13 11 10 9 10 12 14 13 12 12 12 12 12 17 18 18 19 18 18 17 17 19 20 20
7 6 5 4 5 4 1 1 2 3 2 2 5 8 8 7 7 8 8 8 8 8 9 10 11 11 12 13 13 13 14 13 13 13 13 14 15 15 15 15 15 15 16 16 16 17 17 18 18 19 18 18 18 17 17 17 16 16 16 14 14 12 11 9 10 11 11 14 13 12 12 14 13 12 17 17 18 18 18 18 17 18 19 19 19
6 5 5 5 5 6 4 1 3 1 1 2 4 7 7 7 6 7 7 7 7 8 9 10 10 10 11 12 12 13 13 13 13 13 13 14 14 15 15 15 15 15 16 16 16 16 17 18 18 18 18 18 17 17 17 17 16 16 15 14 12 11 9 9 12 13 12 12 11 12 14 12 12 15 16 16 17 17 17 18 19 18 19 19 19
5 5 5 6 4 7 5 5 3 5 4 2 6 6 7 7 7 7 7 7 8 8 9 10 10 10 11 12 12 13 13 13 13 13 14 14 14 14 14 14 15 15 15 15 16 17 17 17 17 17 17 18 17 17 17 16 16 16 15 14 13 11 7 9 12 12 12 13 12 15 13 12 12 16 15 16 17 18 18 20 19 18 18 19 18
6 4 5 5 5 6 5 5 3 3 3 1 2 2 6 8 7 6 7 8 7 8 9 10 9 10 11 12 12 12 13 12 12 13 14 14 14 14 14 15 15 15 15 15 16 16 16 17 17 17 18 17 17 17 17 16 16 15 14 14 13 12 11 10 10 10 10 10 10 13 13 13 18 19 19 17 18 17 18 18 19 19 18 18 19
2 3 4 3 4 5 4 4 2 5 4 3 2 2 5 6 6 7 7 7 7 7 8 9 10 10 11 12 11 11 13 12 13 13 14 14 14 15 15 15 15 15 15 15 16 16 16 17 17 17 17 17 17 17 17 16 16 15 14 13 12 11 10 8 10 11 11 10 10 10 11 12 18 20 21 20 20 20 20 21 22 21 20 20 20
4 4 5 5 5 3 4 5 3 5 4 3 2 2 1 5 6 6 7 7 6 6 8 8 9 9 10 11 10 10 11 12 13 13 14 14 14 15 15 15 15 15 15 15 16 16 17 17 17 17 17 17 17 17 17 16 15 14 13 13 12 10 10 8 11 11 10 11 10 9 10 10 15 19 20 21 20 20 20 20 21 22 21 21 21
5 4 5 4 5 3 4 3 4 4 4 5 3 3 1 4 6 6 6 8 7 6 6 7 8 8 8 9 9 9 11 12 12 13 13 13 14 14 15 15 15 16 16 16 16 16 17 17 17 17 17 18 17 17 17 16 15 14 13 12 11 10 10 10 10 10 10 11 10 10 10 13 18 18 19 20 20 21 22 22 22 23 22 21 21
4 5 5 4 5 3 3 3 4 5 6 7 6 2 4 2 4 6 7 8 7 7 6 8 9 9 9 9 9 10 10 11 11 11 11 12 11 11 13 15 16 16 16 16 16 16 16 16 17 17 17 17 17 17 17 16 15 14 13 11 9 9 10 10 9 10 10 10 11 11 10 14 19 19 20 20 21 22 21 21 20 19 20 21 21
3 4 5 4 4 4 3 2 2 4 4 4 6 4 3 2 4 5 7 8 8 8 8 7 8 9 10 9 10 11 11 10 12 11 10 10 11 12 12 14 15 16 17 17 16 16 16 16 17 17 17 17 17 17 16 16 15 14 13 11 10 11 9 8 10 10 10 10 11 11 10 14 17 18 19 20 19 20 19 20 19 20 19 21 21
2 3 3 4 4 3 3 1 3 3 3 3 4 5 6 4 5 3 6 8 8 9 9 9 9 8 9 10 10 9 10 9 9 10 11 10 10 11 13 15 15 16 16 17 17 17 17 17 17 17 17 17 17 17 17 16 16 15 13 10 11 9 8 9 9 10 10 9 11 11 11 13 17 19 19 20 20 20 19 19 19 20 21 20 21
3 3 3 4 3 3 3 3 2 3 1 3 3 5 5 5 6 6 6 7 8 8 8 7 7 7 8 9 7 7 8 8 8 10 9 10 10 10 12 13 15 16 16 17 17 17 17 17 17 15 13 11 10 8 9 12 15 13 12 11 9 8 8 9 10 10 10 10 10 10 15 16 17 17 18 19 19 20 19 19 19 19 20 21 21
5 2 2 3 2 1 2 2 2 2 2 1 3 4 7 7 5 6 5 6 6 8 8 7 7 8 9 8 6 6 7 8 7 6 8 11 10 10 12 13 14 15 15 17 16 17 17 17 15 13 11 10 8 6 6 6 7 10 11 9 8 8 8 10 9 10 11 11 10 15 16 17 18 20 20 19 20 20 20 20 19 19 20 21 22
4 3 2 2 1 1 1 1 2 1 1 1 2 3 6 6 6 6 6 6 7 6 6 6 5 6 6 6 5 6 6 7 9 13 11 10 9 12 13 13 14 14 14 13 15 15 16 14 11 10 8 6 6 7 6 6 7 7 7 7 7 8 9 9 8 9 9 12 12 21 15 17 18 19 20 20 20 20 22 22 24 23 23 22 22
2 1 2 2 1 1 1 1 1 1 0 1 1 3 5 6 6 6 6 7 6 6 6 7 6 7 6 6 5 6 6 7 8 8 8 8 9 9 8 8 8 9 9 9 8 7 7 7 7 7 7 6 7 7 6 6 7 7 7 7 7 8 8 8 8 8 9 10 13 20 14 16 17 18 19 20 19 19 18 21 24 24 23 23 24
3 4 3 3 3 2 2 1 2 1 0 0 1 1 1 5 7 7 7 7 7 6 6 7 7 7 7 6 6 6 8 8 8 7 8 8 8 7 6 6 7 7 7 7 6 6 6 7 7 7 7 6 7 7 7 7 7 7 7 7 7 7 8 8 8 8 8 10 13 20 16 17 17 18 20 20 20 18 19 19 20 22 23 24 25
5 4 3 3 2 3 2 2 2 2 2 2 2 2 2 0 2 5 8 6 7 6 5 6 7 9 8 8 8 7 8 7 8 8 8 8 7 7 7 6 6 6 6 6 7 6 6 7 7 7 7 7 8 8 8 8 7 8 7 8 8 8 7 8 8 8 8 9 12 22 19 19 20 20 20 20 21 21 21 21 21 20 22 25 26
5 4 3 3 2 2 2 3 3 3 3 5 6 6 4 1 1 2 2 4 6 7 6 2 5 7 7 8 8 7 7 8 8 9 9 7 8 7 7 7 6 6 5 5 6 6 7 7 7 8 7 7 8 8 8 8 8 8 8 8 8 7 7 8 8 8 7 8 10 19 20 19 22 22 21 21 21 22 22 22 24 24 23 24 25
6 5 4 4 3 2 3 4 4 4 5 7 8 7 5 4 2 2 2 1 5 6 6 6 4 3 5 6 8 8 7 7 9 8 8 8 7 6 6 6 6 5 5 5 6 6 7 6 7 7 7 7 7 7 7 7 7 7 7 8 8 8 8 8 8 8 7 8 9 15 22 22 20 22 21 21 22 24 24 24 25 25 24 23 24
6 5 4 4 3 3 4 4 4 4 4 8 8 7 5 4 3 3 3 3 3 2 4 4 5 5 3 3 6 7 6 5 5 6 6 7 9 7 7 6 6 6 6 6 5 6 6 6 7 8 7 7 7 7 7 8 8 7 7 7 7 8 7 8 8 7 7 7 8 11 21 21 20 21 21 22 22 22 22 22 20 22 23 23 23
5 5 4 3 3 3 3 4 4 3 4 7 8 4 4 3 3 3 3 4 4 4 3 3 4 4 4 3 4 4 3 3 4 6 5 6 8 6 6 6 6 5 5 6 4 6 7 7 7 7 6 6 7 7 7 7 8 7 7 7 7 7 8 8 7 7 7 7 7 8 13 22 23 22 22 22 22 22 22 23 23 21 22 22 22
6 6 4 3 3 4 4 4 4 5 5 7 5 4 3 3 3 4 3 3 4 5 4 4 4 4 5 6 5 6 4 4 7 8 9 9 8 8 8 8 6 6 5 6 5 6 8 8 9 8 7 6 7 6 6 7 7 7 6 7 7 7 8 7 7 7 7 7 7 7 8 11 21 24 24 23 23 23 22 22 23 23 22 22 22
5 5 4 4 5 5 5 5 5 6 6 6 2 3 4 4 4 4 4 4 3 4 4 5 5 5 5 6 7 8 7 7 7 10 11 9 7 7 8 7 7 6 6 9 10 8 8 8 8 7 8 8 8 7 6 7 7 6 6 7 7 8 7 7 7 7 7 7 7 7 7 8 10 17 22 22 23 23 24 24 23 22 22 22 21
5 4 5 6 5 2 2 3 6 4 2 2 2 3 4 4 3 3 4 4 3 3 4 4 4 4 5 6 6 6 8 8 9 9 6 7 8 7 7 6 5 7 8 7 7 6 7 9 8 8 7 7 7 6 7 7 6 6 6 6 7 7 7 7 7 7 6 7 6 7 6 6 7 7 10 20 23 23 24 24 24 23 22 22 22
4 5 7 7 6 4 3 5 4 4 3 4 4 4 2 4 4 3 3 3 3 3 3 3 4 4 4 4 5 5 6 8 8 9 7 7 8 8 8 8 8 9 8 6 7 8 8 8 6 8 7 7 7 6 7 7 6 6 6 6 6 6 7 7 7 7 7 7 7 7 7 6 6 6 7 8 15 22 23 24 24 24 24 23 22
7 7 7 7 6 5 5 5 6 6 5 5 4 4 3 4 4 3 3 3 3 3 3 3 4 5 4 1 4 5 5 6 7 8 8 8 7 7 5 8 10 8 7 7 7 8 8 7 6 8 9 7 7 7 6 7 7 7 6 6 6 6 7 7 7 7 6 6 7 7 7 7 7 7 8 8 9 13 22 23 24 24 24 24 23
7 8 8 8 8 6 6 7 7 6 5 5 4 4 4 4 4 4 3 3 3 3 2 3 4 5 4 3 4 5 5 6 6 7 9 9 8 9 6 8 7 8 8 7 7 7 8 7 6 5 7 8 8 9 8 7 7 7 7 7 6 6 7 6 6 6 6 7 7 7 7 7 7 8 7 7 7 7 14 19 21 24 24 24 23
7 8 9 9 8 6 6 6 5 5 5 5 5 4 4 4 5 4 3 4 4 3 2 1 3 4 4 4 4 6 6 6 6 7 7 8 8 9 9 8 7 8 8 8 7 7 7 7 9 6 6 8 8 8 9 8 7 7 7 7 7 7 6 6 6 6 6 7 6 7 6 6 6 7 7 7 7 7 7 10 15 18 23 23 23
7 9 9 9 7 5 5 6 5 5 5 6 6 6 6 5 5 4 4 4 4 4 2 3 3 3 3 4 4 5 6 6 6 8 8 8 8 9 9 9 7 7 9 9 8 7 7 7 10 9 6 6 8 8 9 8 8 7 8 9 8 8 6 6 5 6 6 6 6 6 5 6 6 7 7 7 7 7 8 8 8 8 10 20 21
8 9 10 9 7 7 6 5 6 6 5 6 5 6 5 5 5 4 4 3 4 3 2 3 3 3 3 3 3 4 5 6 6 7 8 8 8 8 9 8 7 7 8 9 9 8 10 10 9 10 10 8 8 8 8 9 9 10 10 9 9 8 8 6 6 6 5 5 5 5 5 5 5 6 7 6 6 7 7 7 7 8 7 11 17
10 11 12 9 9 8 8 8 6 7 6 6 6 7 7 5 4 4 5 4 4 4 3 3 3 2 3 4 3 3 4 5 5 6 8 9 8 8 9 8 7 7 7 9 9 10 10 10 9 8 11 11 8 7 8 8 10 9 8 9 8 8 7 7 7 6 5 4 4 5 4 5 5 5 6 6 6 7 7 7 7 8 8 8 9
12 12 13 10 9 9 9 8 7 7 7 7 6 6 6 6 6 5 5 5 4 4 4 4 3 3 4 3 3 4 5 5 5 6 8 9 9 8 9 9 8 8 7 8 10 10 10 9 10 9 6 10 8 8 7 6 5 7 8 7 7 6 6 7 6 6 5 5 4 4 4 5 5 4 4 5 6 7 7 7 7 8 8 9 9
12 12 12 11 10 9 9 8 8 7 7 6 6 5 4 3 4 5 5 4 3 3 3 4 3 4 4 3 3 3 5 5 5 6 6 8 8 9 8 8 7 7 9 9 10 10 9 11 11 11 10 6 7 3 3 4 5 7 7 8 6 5 4 5 5 5 4 4 4 4 4 5 5 4 4 5 5 6 6 7 8 8 8 8 8
11 12 12 12 9 9 9 9 8 8 7 6 4 5 6 7 7 6 5 3 4 4 4 3 4 5 5 3 2 1 3 5 4 5 5 6 7 8 8 8 8 7 9 10 10 10 10 9 9 9 10 10 7 5 1 2 3 8 7 1 5 3 4 4 4 4 4 5 4 4 3 3 4 4 4 5 5 6 6 6 7 7 7 8 7
13 13 13 12 7 11 10 10 8 8 7 6 6 7 8 7 8 8 7 7 6 4 4 3 3 3 4 4 3 2 3 4 4 4 5 6 4 5 8 9 9 8 8 9 10 10 10 9 9 10 10 10 9 5 2 1 1 3 0 5 3 4 2 6 6 4 3 2 4 4 4 3 3 3 3 4 4 5 5 5 6 6 7 7 8
14 13 11 11 10 10 10 10 8 8 7 9 8 7 7 8 8 7 6 4 6 5 6 8 7 7 6 4 4 3 3 4 3 4 5 5 5 4 6 8 8 8 7 8 8 9 9 9 9 9 9 6 8 8 4 2 1 2 3 3 3 2 4 7 6 3 3 3 3 3 3 3 3 3 3 3 4 4 4 5 5 6 6 7 7
13 12 11 11 11 10 11 10 9 8 7 9 9 7 7 7 10 10 10 9 8 6 5 5 5 4 4 5 4 3 3 4 4 4 5 5 5 5 6 7 8 7 7 8 9 10 8 8 7 7 6 6 7 7 7 6 4 1 1 2 1 1 1 8 5 6 4 4 3 2 3 3 3 3 3 3 3 3 4 4 5 5 6 6 7
13 14 11 11 13 11 11 11 8 7 7 8 9 8 8 7 6 6 7 7 8 8 8 6 4 5 5 5 4 4 3 3 5 4 5 6 6 6 6 7 7 7 7 8 9 8 7 5 6 4 4 6 7 6 7 7 7 4 1 2 3 3 3 3 2 2 1 5 4 2 2 2 2 3 3 3 3 3 3 4 4 4 4 5 6
13 15 12 11 11 11 10 10 9 8 8 10 10 9 7 8 6 5 6 3 4 5 5 5 5 5 6 5 4 4 4 4 4 5 5 5 6 7 7 7 7 7 7 7 7 7 9 9 7 6 6 5 4 3 6 6 4 5 5 3 4 4 3 3 2 1 1 3 4 5 4 3 2 3 2 2 2 3 3 3 4 4 4 5 6
12 13 10 10 11 10 11 11 11 9 9 10 8 9 7 4 5 5 6 6 5 5 5 5 5 5 6 6 5 5 4 4 4 4 5 5 6 7 7 7 8 7 6 7 7 7 8 7 7 6 5 4 2 3 3 4 3 5 3 5 5 4 4 3 2 2 1 1 2 5 5 5 4 3 3 2 3 3 2 2 2 3 3 4 5
12 13 11 11 11 11 12 13 12 9 10 10 10 9 7 6 5 6 7 8 8 8 7 6 5 6 7 7 6 5 5 5 5 5 5 5 5 6 6 6 6 6 6 8 8 8 7 6 4 5 5 5 4 4 4 4 4 3 3 3 4 4 3 4 4 3 3 3 3 4 4 4 2 4 3 3 3 2 2 2 2 2 3 4 5
Wind_Direction
134 139 140 141 305 87 148 178 117 110 105 103 101 100 104 100 103 100 99 102 104 102 99 96 94 91 88 85 80 73 68 65 61 61 59 58 59 59 59 59 60 60 60 60 60 63 66 73 75 74 72 70 72 71 69 67 64 62 62 61 58 57 54 53 51 51 49 51 54 54 55 51 51 50 49 47 46 43 37 32 47 54 50 49 47
127 143 152 151 11 57 170 174 130 112 105 96 100 101 100 98 95 100 105 105 106 102 100 96 94 92 88 83 79 74 69 65 62 61 60 58 57 58 59 60 59 59 60 61 63 66 69 70 75 75 72 72 73 75 74 71 66 66 64 62 60 58 56 54 53 52 49 52 62 64 58 54 53 52 51 50 50 49 44 41 40 49 49 47 46
48 168 156 134 40 339 147 181 124 120 112 108 104 100 99 101 103 103 105 108 105 104 99 96 94 92 88 84 80 75 70 65 62 61 59 59 58 57 58 59 59 60 60 63 66 68 71 73 74 75 76 77 76 79 77 73 71 67 65 63 62 59 57 56 54 49 44 37 57 72 73 61 54 52 52 52 54 54 50 47 42 42 42 41 40
201 170 155 126 193 321 120 102 116 124 117 111 107 106 106 107 111 109 109 109 107 103 101 98 97 94 88 86 84 78 72 67 63 60 60 59 58 59 60 61 61 62 64 65 67 70 71 73 75 77 80 80 81 81 78 75 72 69 65 64 62 61 58 55 52 45 38 37 57 63 60 59 55 51 53 53 54 52 51 49 48 47 47 45 42
182 161 155 153 157 104 80 91 106 129 120 113 112 113 111 108 110 112 108 107 105 103 100 99 99 95 93 91 85 79 74 68 62 59 58 58 58 59 61 63 64 65 67 67 67 68 72 75 79 82 83 86 88 81 77 75 71 67 66 64 63 61 56 47 42 35 25 51 55 62 61 59 57 53 53 53 53 52 51 50 49 48 46 47 45
171 158 162 158 141 122 92 95 105 131 124 126 120 118 115 114 110 107 106 105 104 102 101 100 98 96 93 88 84 80 75 69 63 61 59 59 59 60 63 65 66 68 69 68 68 69 73 79 82 85 85 81 78 77 77 74 70 67 66 65 63 60 51 40 30 17 14 69 63 63 63 57 54 54 52 51 52 51 51 51 50 49 48 47 48
169 167 164 156 148 120 89 86 98 110 130 131 126 119 115 116 109 105 107 108 106 103 101 99 97 94 93 89 83 81 77 71 68 64 62 62 61 61 65 68 68 69 68 68 70 74 78 81 81 81 83 82 79 79 79 76 71 69 67 66 63 57 48 38 23 6 26 59 56 62 60 59 59 58 54 53 51 52 52 52 51 51 51 49 48
182 171 164 156 162 117 77 86 99 109 137 131 131 124 122 122 119 113 110 111 106 104 101 101 100 100 99 92 85 83 77 74 71 67 65 64 64 64 65 68 70 70 69 68 71 75 78 79 82 78 78 81 82 80 77 74 73 71 68 66 61 55 42 31 10 10 51 62 61 61 61 61 59 58 56 56 54 52 50 52 53 52 51 51 48
175 168 166 162 138 98 106 99 122 108 138 136 133 129 121 118 104 115 115 112 111 108 105 104 105 104 99 93 87 81 78 75 71 69 67 66 66 66 67 69 71 72 72 72 74 77 76 77 78 78 79 79 80 79 75 72 72 70 67 65 61 54 44 28 8 36 64 66 63 62 61 63 62 64 58 59 57 56 50 49 55 55 54 52 52
171 161 163 169 148 117 122 224 129 145 119 147 138 132 129 126 121 126 121 115 110 108 108 106 104 101 95 90 87 83 82 79 76 73 71 70 70 70 71 72 73 73 75 77 76 79 77 76 76 77 77 75 73 73 73 72 69 67 64 60 57 52 40 13 37 56 63 68 68 67 58 58 63 63 60 59 59 60 58 48 53 58 56 53 53
171 162 157 167 132 116 146 166 292 121 114 151 145 138 137 136 140 131 120 115 113 113 111 110 108 108 104 96 90 88 87 85 81 78 76 75 74 76 76 76 74 74 75 77 79 80 82 81 77 76 75 72 72 71 70 67 65 63 60 56 51 46 36 1 47 62 63 64 65 67 75 72 64 63 65 60 60 66 64 58 52 54 58 56 54
167 171 154 154 125 134 116 220 187 142 146 118 153 146 142 139 138 133 120 116 118 114 112 116 116 115 109 102 97 93 90 88 85 82 81 79 80 80 81 81 81 80 79 79 81 83 84 84 82 76 73 70 69 68 67 64 61 59 57 51 48 45 33 2 59 64 64 65 70 69 63 63 64 65 69 63 61 68 66 60 59 56 57 58 57
161 179 156 148 175 131 96 359 157 184 180 176 161 156 143 140 140 133 123 120 122 120 119 122 121 117 110 106 102 98 95 92 90 89 87 85 84 85 85 85 84 83 84 84 84 84 84 83 79 75 73 71 69 68 66 64 63 60 54 50 44 41 37 16 67 64 62 60 65 63 59 62 59 54 61 67 69 64 62 61 56 56 60 59 57
164 173 167 159 167 149 150 177 188 178 234 226 170 169 154 146 145 139 131 128 130 128 129 128 126 122 115 112 107 102 100 97 95 94 90 88 88 88 87 87 86 86 86 86 85 86 86 86 82 77 75 71 69 67 65 64 63 60 54 47 39 29 10 67 68 67 65 65 63 61 57 57 58 52 58 64 65 63 64 65 62 62 56 56 57
181 146 161 143 164 175 184 202 177 185 190 260 171 238 167 152 150 149 142 136 134 133 134 132 131 128 123 116 109 109 105 102 100 97 93 90 90 89 88 87 86 86 86 87 87 87 86 86 82 78 75 72 70 68 66 65 64 60 54 48 41 28 1 72 64 66 63 62 61 63 59 60 59 54 57 63 63 60 59 63 66 62 59 59 55
85 159 125 101 130 182 191 165 198 202 172 229 212 204 179 158 153 151 141 132 136 136 136 139 138 134 127 116 116 113 108 106 102 99 94 91 89 89 88 87 86 86 86 87 87 86 86 85 83 80 78 76 72 69 68 67 64 59 54 48 42 28 15 49 71 68 65 60 61 55 56 52 61 58 55 61 63 61 59 60 63 61 59 59 60
75 76 80 61 46 84 144 167 172 227 184 201 169 313 273 159 160 148 141 127 126 137 141 143 141 124 123 119 119 110 106 105 102 99 96 92 90 88 89 88 88 87 87 87 87 87 86 85 84 83 81 79 75 73 71 68 64 59 56 51 41 32 23 40 75 66 62 60 58 58 55 54 50 61 62 58 64 67 65 64 63 64 61 61 61
64 103 87 82 78 56 94 125 164 171 187 150 135 17 328 172 166 147 145 134 130 136 138 136 129 129 120 119 119 107 105 104 103 102 100 96 94 93 92 92 93 92 91 89 88 87 86 86 85 84 83 80 78 76 72 69 64 59 55 50 45 33 31 45 69 64 64 61 61 58 63 57 58 55 57 56 56 58 56 55 56 58 59 60 60
88 87 68 60 71 58 57 84 118 160 180 190 182 122 25 36 164 151 148 138 130 130 137 136 129 127 121 123 115 107 100 99 95 95 96 94 94 94 96 97 99 99 97 94 92 90 89 87 85 85 84 81 78 76 72 67 63 57 53 48 40 41 39 56 56 62 61 65 64 62 58 57 64 58 54 51 51 53 54 54 53 52 58 58 56
66 91 108 64 44 55 43 107 117 137 173 199 192 164 292 292 171 164 150 140 129 120 109 112 120 125 126 125 120 117 114 109 110 109 103 99 99 100 100 101 101 101 101 101 98 95 92 90 88 87 83 81 77 73 70 67 63 56 49 43 42 45 52 53 54 59 65 62 62 67 54 61 63 63 58 55 57 57 57 55 55 54 49 54 57
67 86 88 87 60 38 22 42 93 114 172 175 201 186 205 189 162 140 130 119 119 117 110 111 116 125 134 137 144 145 131 126 128 120 117 104 99 102 102 103 103 102 101 100 98 96 93 91 89 86 82 79 75 69 62 61 59 53 46 37 46 56 49 48 51 62 64 61 63 58 47 54 60 62 64 63 62 61 58 57 57 56 54 52 56
153 127 85 80 62 37 8 5 58 74 100 192 186 188 182 227 182 167 159 133 126 127 136 140 141 143 138 156 165 154 148 142 127 126 112 114 98 91 102 104 106 102 100 98 96 96 94 91 88 82 78 73 79 80 73 62 53 52 43 38 52 52 47 49 51 49 48 51 47 38 52 59 61 63 65 68 66 65 62 61 60 58 56 55 52
173 148 119 69 56 36 355 7 12 67 100 93 202 203 189 197 180 182 143 142 144 154 155 155 165 158 168 173 170 159 154 143 141 111 110 87 92 98 98 101 103 100 97 95 94 94 93 90 85 81 74 74 74 72 67 65 64 51 49 48 53 47 47 47 50 49 44 30 37 7 61 58 59 62 65 68 71 68 63 64 65 63 63 59 59
162 162 123 83 48 51 343 313 330 39 59 86 181 237 198 189 200 187 167 168 163 175 159 160 171 172 176 183 166 154 163 140 96 112 117 118 98 89 89 92 94 94 98 93 89 87 89 83 77 80 77 68 69 70 68 64 62 59 58 54 53 47 46 46 46 46 43 32 21 359 37 62 63 64 66 67 67 67 65 63 60 58 58 60 63
151 124 164 157 166 184 255 218 261 252 76 127 109 241 208 210 209 191 181 176 172 177 171 174 167 180 180 185 167 160 163 142 148 144 153 132 130 126 124 123 122 118 117 105 107 110 102 95 84 74 71 66 68 66 67 69 67 67 62 56 54 51 52 47 45 46 44 34 16 6 6 56 62 63 61 60 63 62 63 64 63 60 59 60 58
163 202 175 168 179 195 223 244 234 243 217 215 151 250 276 223 225 206 188 186 179 177 181 183 174 174 182 180 179 169 169 160 169 165 153 143 144 142 134 130 126 122 123 115 110 107 101 93 81 74 69 64 65 65 62 65 68 67 64 54 52 55 55 49 48 47 44 37 21 9 13 51 58 60 65 65 62 60 62 66 65 63 59 58 58
197 207 176 186 186 216 203 227 239 219 228 236 223 205 177 296 306 172 174 178 178 170 179 188 182 178 184 180 186 177 178 166 174 170 160 153 150 145 137 130 127 124 123 119 111 106 99 91 85 80 73 74 71 68 65 62 63 67 67 59 55 56 57 54 49 44 41 42 27 14 21 42 54 58 57 59 63 62 60 63 67 61 57 55 54
198 193 205 221 212 258 281 263 236 228 223 219 229 227 210 208 90 35 121 169 177 178 176 195 182 183 182 192 195 186 178 174 172 173 168 161 153 142 140 132 125 124 114 101 111 105 99 91 93 89 88 78 74 73 71 67 65 66 67 63 63 59 58 60 56 41 41 44 38 20 24 29 52 54 52 53 56 58 62 63 65 63 59 57 55
204 198 201 215 219 231 250 246 244 226 231 222 222 222 221 216 161 161 140 123 202 181 181 183 179 172 196 199 198 192 188 180 179 171 171 163 131 128 126 109 102 98 100 90 103 108 104 103 99 96 90 85 81 77 76 70 68 65 68 70 68 66 66 65 59 46 43 50 45 29 26 19 47 52 54 52 57 55 55 54 54 56 59 58 56
201 188 195 210 217 224 235 239 240 236 234 222 221 219 212 207 190 168 162 170 159 137 158 182 189 180 187 189 196 202 196 176 156 150 160 141 137 126 117 113 112 117 118 111 104 106 107 104 99 97 95 88 84 82 83 75 65 60 63 69 68 70 69 68 62 55 53 54 54 48 30 28 34 62 53 52 51 55 55 56 58 56 54 56 56
185 201 198 200 198 223 234 244 237 239 229 222 222 207 170 191 176 162 165 180 168 145 133 142 162 176 179 195 171 138 126 107 130 128 111 129 129 111 120 115 109 104 109 103 102 109 107 104 106 105 96 94 88 84 83 80 73 62 58 62 69 73 72 67 66 60 59 58 58 55 46 36 35 38 61 62 59 58 58 57 57 57 55 54 55
194 196 197 185 195 210 219 226 227 206 216 210 208 170 136 163 165 165 156 152 159 159 156 162 153 167 173 175 165 147 140 133 141 132 126 122 125 120 124 123 121 116 115 117 104 94 95 95 91 94 92 84 82 77 77 82 78 72 65 66 69 73 73 73 70 62 59 58 57 57 52 51 42 41 41 56 60 59 57 55 55 54 54 52 52
196 192 188 182 201 205 211 213 212 200 200 194 172 142 127 142 168 166 147 132 128 128 144 166 160 161 168 173 171 162 142 140 142 143 145 141 131 124 127 128 129 130 118 108 108 105 101 101 96 91 91 91 86 84 77 77 77 72 68 68 70 67 70 73 70 64 59 59 61 58 61 58 61 50 45 43 50 55 57 54 54 55 53 52 49
185 181 182 196 192 178 187 212 203 184 147 121 163 141 144 132 120 132 106 116 101 104 126 136 130 133 155 165 153 142 159 161 153 142 124 120 124 122 122 114 112 111 116 119 111 112 112 110 114 105 99 96 100 97 94 89 86 81 75 70 72 69 70 69 64 61 61 62 61 62 61 64 62 62 57 46 43 47 51 52 53 54 53 50 48
179 187 192 191 186 178 187 195 178 163 150 164 174 154 142 127 119 118 119 122 121 118 108 122 134 122 131 157 140 121 126 140 146 131 118 110 116 122 123 126 130 131 130 131 124 116 117 120 121 112 103 99 98 94 94 93 89 82 78 78 77 78 76 74 69 65 63 63 62 60 59 59 57 58 58 61 48 43 46 47 47 47 47 49 49
195 186 189 191 184 180 185 180 169 166 161 142 144 148 135 113 115 115 120 106 107 113 118 130 130 124 103 92 95 90 98 117 128 128 117 119 119 117 122 135 139 133 118 115 119 120 122 115 112 121 118 110 109 102 97 93 87 83 80 79 80 80 80 76 68 64 61 65 63 61 60 55 53 50 54 60 59 45 42 44 44 42 41 42 45
194 188 189 192 190 174 170 172 172 162 138 121 116 106 97 102 104 102 101 91 93 93 103 124 125 118 112 132 105 98 108 120 127 126 122 127 131 127 126 120 122 123 125 123 119 122 129 123 119 108 116 120 115 111 104 98 92 88 83 79 75 78 76 71 71 72 66 66 67 66 63 58 53 53 52 51 52 55 45 43 44 40 36 36 38
193 194 194 194 189 166 173 165 146 148 137 128 123 108 96 91 90 89 69 81 71 68 67 67 103 112 130 134 124 115 126 131 129 122 117 125 132 132 138 139 137 133 126 125 127 131 131 129 123 120 122 123 123 119 111 103 98 92 82 74 73 73 73 71 69 68 67 66 63 61 60 58 52 50 51 51 50 45 42 42 41 43 35 32 33
192 194 195 196 183 159 157 152 156 144 128 128 117 112 107 94 91 90 91 87 81 72 58 57 45 79 100 114 117 125 133 137 137 134 128 129 134 137 139 141 136 131 125 130 135 134 131 133 130 129 119 112 119 116 112 109 103 95 84 75 71 69 67 65 68 68 68 66 66 63 60 57 55 48 49 49 48 46 42 39 37 36 36 31 31
192 194 195 190 173 158 163 158 162 150 133 133 136 132 125 125 116 106 98 90 95 95 70 78 63 67 57 71 93 117 130 134 136 133 132 136 138 142 135 135 138 137 135 138 146 148 146 137 131 129 118 105 106 116 120 115 103 91 85 79 73 69 66 67 67 67 67 62 63 64 63 61 58 53 49 49 47 45 45 43 41 37 33 30 30
194 192 194 188 180 174 167 168 164 158 156 155 159 152 146 131 129 144 134 134 129 127 119 98 77 58 64 88 93 110 116 124 135 139 132 133 135 134 134 137 141 145 143 146 145 140 141 137 129 127 128 124 123 131 131 129 116 97 90 88 84 75 73 68 67 63 60 60 61 65 61 64 62 57 53 53 50 47 48 44 42 39 32 26 24
194 191 196 183 180 177 177 169 165 171 176 172 163 165 163 162 157 157 135 134 144 145 127 109 94 82 76 96 114 120 132 137 143 141 138 139 142 142 142 151 151 150 144 138 140 136 141 139 138 126 131 132 134 148 154 156 128 129 132 117 97 91 80 75 65 58 60 62 62 61 64 60 57 58 59 62 56 50 46 44 41 39 33 29 22
190 190 192 180 182 181 182 170 171 174 176 170 166 164 140 98 124 133 138 116 52 51 75 96 108 104 92 80 85 121 141 138 143 145 137 142 147 141 142 147 152 141 139 141 144 146 151 150 152 143 140 130 133 135 157 291 138 138 127 129 137 133 135 104 85 63 58 62 67 69 64 65 54 53 56 55 55 52 47 44 42 38 35 30 26
190 191 188 185 178 183 182 175 172 175 173 169 145 116 104 99 89 96 80 80 125 102 95 93 104 115 113 96 100 128 134 128 134 137 131 139 144 142 144 153 153 156 151 149 153 153 158 158 155 148 142 139 155 167 321 284 174 151 163 201 156 176 154 163 127 91 75 66 59 69 70 71 64 60 60 57 57 55 53 50 45 41 35 32 28
194 194 187 183 174 178 177 175 173 176 170 147 137 130 118 108 104 94 91 93 90 113 121 122 132 125 130 145 132 107 98 107 114 118 132 134 122 133 152 156 155 161 160 154 158 162 164 162 155 150 162 154 157 155 160 263 2 360 153 145 151 205 198 131 141 130 157 102 70 68 63 60 65 61 66 69 65 63 59 53 50 43 35 31 26
196 196 184 178 168 175 177 177 172 172 161 157 149 149 151 143 142 140 146 146 143 164 171 167 168 170 164 128 106 100 92 101 101 104 112 122 137 147 144 153 157 158 161 158 157 155 165 163 163 160 164 173 156 153 150 152 39 20 353 353 352 0 130 157 182 155 110 91 93 81 69 65 73 72 74 78 72 67 58 53 46 44 36 29 24
192 189 181 172 169 174 178 176 172 165 160 159 157 155 156 168 167 165 162 165 161 179 165 154 157 137 131 137 131 114 104 122 112 117 129 133 146 156 156 159 161 160 157 157 160 165 161 161 159 168 168 158 161 160 158 159 162 104 31 33 37 315 126 151 204 121 167 154 156 130 95 80 73 80 84 75 71 75 63 54 46 44 40 29 24
182 189 179 173 173 175 176 178 170 163 157 158 168 170 163 177 184 172 168 175 176 163 157 148 126 135 136 135 143 122 114 123 127 123 135 144 154 159 163 159 161 160 157 160 158 159 154 141 159 154 151 169 178 169 158 162 182 151 123 113 97 92 78 21 20 209 182 165 166 136 134 100 95 84 83 82 82 73 70 59 47 37 37 32 24
183 193 181 172 169 170 171 172 167 162 163 168 174 180 181 178 180 169 173 138 93 108 122 127 136 146 141 140 136 125 124 113 117 125 136 146 156 162 163 159 159 156 162 155 151 150 155 159 164 166 174 175 187 149 154 167 186 145 148 123 117 110 98 74 76 29 196 193 162 175 165 149 160 126 103 101 85 83 78 68 55 39 37 31 24
186 192 178 171 168 166 172 173 169 171 168 172 175 178 185 181 173 181 164 142 129 121 132 139 147 157 149 145 141 146 144 135 125 129 139 154 157 158 163 159 156 157 158 147 141 148 152 159 166 169 159 151 119 126 135 144 138 139 159 146 141 130 131 138 140 148 102 304 227 186 175 178 196 146 134 133 127 119 102 86 69 52 37 31 21
183 189 178 175 167 169 173 178 175 172 171 172 173 178 179 188 188 179 165 151 149 151 144 152 159 163 160 156 157 152 154 144 143 145 149 153 153 155 158 153 150 151 146 144 158 158 155 146 122 114 123 138 136 117 104 98 117 127 144 166 158 169 168 175 161 171 183 179 165 159 167 193 217 162 135 136 145 133 113 97 76 53 36 32 18